GW1144 Weather Reports


time (UTC)temp
C
wind
direction
speed
KPH
gust
KPH
rain 1hr
cm
rain 24hr
cm
rain mn
cm
humidity
%
barometer
mb
20260502193051 19 277 14.5 32.2 0.00 0.00 0.00 34 1012.5
20260502191555 18 234 4.8 25.7 0.00 0.00 0.00 35 1013.0
20260502190053 18 173 12.9 32.2 0.00 0.00 0.00 34 1013.2
20260502184552 18 124 8.0 27.4 0.00 0.00 0.00 36 1013.6
20260502183058 17 199 11.3 24.1 0.00 0.00 0.00 35 1013.7
20260502181552 17 194 11.3 29.0 0.00 0.00 0.00 35 1014.2
20260502163104 14 221 9.7 22.5 0.00 0.00 0.00 38 1015.8
20260502161556 13 211 9.7 19.3 0.00 0.00 0.00 40 1016.0
20260502160104 13 206 8.0 24.1 0.00 0.00 0.00 40 1016.3
20260502151603 12 197 6.4 20.9 0.00 0.00 0.00 45 1017.1
20260502123053 2 0 0.0 3.2 0.00 0.00 0.00 73 1018.1
20260502121554 1 0 0.0 1.6 0.00 0.00 0.00 77 1018.1
20260502120110 0 0 0.0 1.6 0.00 0.00 0.00 81 1018.2
20260502114557 0 0 0.0 0.0 0.00 0.00 0.00 82 1018.2
20260502113053 -1 0 0.0 0.0 0.00 0.00 0.00 82 1018.1
20260502111553 0 0 0.0 0.0 0.00 0.00 0.00 81 1018.1
20260502110057 0 0 0.0 0.0 0.00 0.00 0.00 79 1018.1
20260502104555 0 0 0.0 0.0 0.00 0.00 0.00 79 1018.1
20260502103051 0 0 0.0 0.0 0.00 0.00 0.00 80 1018.2
20260502101556 -1 0 0.0 0.0 0.00 0.00 0.00 80 1018.2
20260502100115 0 0 0.0 0.0 0.00 0.00 0.00 78 1018.2
20260502090103 0 0 0.0 0.0 0.00 0.00 0.00 77 1018.0
20260502070058 1 0 0.0 0.0 0.00 0.00 0.00 71 1018.5
20260502064606 1 0 0.0 3.2 0.00 0.00 0.00 72 1018.5
20260502063056 1 0 0.0 0.0 0.00 0.00 0.00 72 1018.6
20260502061558 1 0 0.0 1.6 0.00 0.00 0.00 72 1018.5
20260502060101 2 0 0.0 1.6 0.00 0.00 0.00 70 1018.4
20260502054555 2 0 0.0 1.6 0.00 0.00 0.00 69 1018.4
20260502053057 2 0 0.0 3.2 0.00 0.00 0.00 68 1018.4
20260502051634 3 0 0.0 0.0 0.00 0.00 0.00 66 1018.5
20260502050100 3 0 0.0 0.0 0.00 0.00 0.00 66 1018.5
20260502044606 3 0 0.0 3.2 0.00 0.00 0.00 65 1018.5
20260502043053 4 0 0.0 3.2 0.00 0.00 0.00 61 1018.6
20260502041553 5 0 0.0 4.8 0.00 0.00 0.00 60 1018.6
20260502040049 4 281 0.0 1.6 0.00 0.00 0.00 62 1018.6
20260502034552 5 281 0.0 4.8 0.00 0.00 0.00 61 1018.6
20260502033054 5 43 0.0 1.6 0.00 0.00 0.00 59 1018.6
20260502031607 6 0 0.0 1.6 0.00 0.00 0.00 57 1018.5
20260502030052 6 0 0.0 0.0 0.00 0.00 0.00 54 1018.6
20260502024555 7 0 0.0 3.2 0.00 0.00 0.00 56 1018.4
20260502023055 7 0 0.0 1.6 0.00 0.00 0.00 49 1018.4
20260502021556 6 37 1.6 3.2 0.00 0.00 0.00 51 1018.3
20260502020105 7 0 0.0 1.6 0.00 0.00 0.00 49 1018.2
20260502014548 8 0 0.0 1.6 0.00 0.00 0.00 47 1018.2
20260502013054 8 0 0.0 3.2 0.00 0.00 0.00 42 1018.1
20260502011553 9 0 0.0 4.8 0.00 0.00 0.00 41 1018.0
20260502010055 10 299 0.0 3.2 0.00 0.00 0.00 38 1018.0
20260502004549 11 275 1.6 4.8 0.00 0.00 0.00 35 1017.9
20260502003051 11 0 1.6 4.8 0.00 0.00 0.00 35 1017.9
20260502001552 11 315 1.6 6.4 0.00 0.00 0.00 35 1018.0
20260502000047 11 269 3.2 12.9 0.00 0.00 0.00 35 1017.9
20260501234559 11 0 0.0 6.4 0.00 0.00 0.00 34 1018.0
20260501233101 11 27 4.8 12.9 0.00 0.00 0.00 36 1017.9
20260501231605 11 0 1.6 8.0 0.00 0.00 0.00 36 1018.0
20260501230058 11 323 4.8 12.9 0.00 0.00 0.00 33 1018.0
20260501224554 11 360 1.6 12.9 0.00 0.00 0.00 36 1018.1
20260501223100 11 294 3.2 12.9 0.00 0.00 0.00 33 1018.1
20260501221550 11 336 4.8 12.9 0.00 0.00 0.00 33 1018.2
20260501220052 12 0 1.6 17.7 0.00 0.00 0.00 33 1018.1
20260501214600 12 296 6.4 14.5 0.00 0.00 0.00 34 1018.3
20260501213051 11 283 8.0 14.5 0.00 0.00 0.00 33 1018.2
20260501211557 11 259 1.6 12.9 0.00 0.00 0.00 34 1018.3
20260501204554 11 213 4.8 16.1 0.00 0.00 0.00 34 1018.5
20260501203051 11 277 3.2 14.5 0.00 0.00 0.00 36 1018.5
20260501201553 12 270 6.4 19.3 0.00 0.00 0.00 36 1018.7
20260501200053 11 355 4.8 16.1 0.00 0.00 0.00 37 1018.8
20260501194559 12 265 6.4 19.3 0.00 0.00 0.00 34 1018.8